Regional Weather Roundup
Issued by NWS

Home | Current Version | Previous Version | Graphics & Text | Print | Product List | Glossary On
Versions: 1 2 3 4 5 6 7 8 9 10 11 12 13 14 15 16 17 18 19 20 21 22 23 24 25 26 27 28 29 30 31 32 33 34 35 36 37 38 39 40 41 42 43 44 45 46 47 48 49 50
000
ASUS43 KMKX 301420
RWRWI

WISCONSIN REGIONAL WEATHER ROUNDUP
NATIONAL WEATHER SERVICE MILWAUKEE/SULLIVAN WI
900 AM CDT MON MAR 30 2015

NOTE: "FAIR" INDICATES FEW OR NO CLOUDS BELOW 12,000 FEET WITH NO
SIGNIFICANT WEATHER AND/OR OBSTRUCTIONS TO VISIBILITY.

WIZ001-002-006>008-014>016-023>028-301500-
NORTHWEST WISCONSIN

CITY           SKY/WX    TMP DP  RH WIND       PRES   REMARKS
SUPERIOR ARPT  MOSUNNY   37  29  71 SW5       29.93S WCI  34
ASHLAND        SUNNY     40  28  62 W10       29.93S WCI  33
HAYWARD        SUNNY     36  27  69 CALM      29.93F
SIREN          MOSUNNY   40  28  61 CALM      29.94S
CUMBERLAND     MOSUNNY   36  30  80 CALM      29.94S
RICE LAKE      MOSUNNY   39  29  65 SW3       29.96F
CHETEK         MOSUNNY   39  29  67 CALM      29.95F
LADYSMITH      SUNNY     38  29  68 CALM      29.96F
EAU CLAIRE     MOSUNNY   41  29  62 W5        29.96S
MENOMONIE      MOSUNNY   40  29  64 W3        29.97F
NEW RICHMOND   PTSUNNY   39  30  70 SW6       29.96S WCI  34
OSCEOLA        CLOUDY    40  31  72 CALM      29.99R
$$

WIZ003>005-009-010-017-018-301500-
NORTH CENTRAL WISCONSIN

CITY           SKY/WX    TMP DP  RH WIND       PRES   REMARKS
MANITOWISH WTR SUNNY     35  26  70 NW10      29.89R WCI  27
ARBOR VITAE    SUNNY     37  27  67 NW6       29.89R WCI  32
WOODRUFF       SUNNY     37  27  67 NW6       29.89R WCI  32
RHINELANDER    SUNNY     38  27  64 W10G18    29.90R WCI  31
EAGLE RIVER    SUNNY     37  25  62 NW9G17    29.88R WCI  30
LAND O LAKES   SUNNY     37  26  65 NW7       29.87S WCI  32
PHILLIPS       MOSUNNY   37  27  69 W3        29.92S
TOMAHAWK       SUNNY     39  26  59 W12       29.92R WCI  32
MEDFORD        SUNNY     38  28  68 W5        29.94R WCI  34
MERRILL        SUNNY     40  29  64 W8        29.92S WCI  34
$$

WIZ029-030-035-036-043>047-301500-
CENTRAL WISCONSIN

CITY           SKY/WX    TMP DP  RH WIND       PRES   REMARKS
WAUSAU         SUNNY     40  28  62 W13       29.92S WCI  32
MOSINEE        SUNNY     39  28  65 W12       29.95R WCI  32
MARSHFIELD     SUNNY     41  29  62 W8        29.96R
STEVENS POINT  SUNNY     39  26  59 W7        29.96R WCI  34
WAUPACA        SUNNY     45  28  51 W14       29.95S
WAUTOMA        SUNNY     45  29  53 W9G20     29.97S
WISC RAPIDS    SUNNY     40  26  57 W9        29.98R WCI  34
CAMP DOUGLAS   MOSUNNY   45  34  65 W6        29.98S
$$

WIZ011>013-019>022-031-037>040-048>050-301500-
NORTHEAST WISCONSIN

CITY           SKY/WX    TMP DP  RH WIND       PRES   REMARKS
ANTIGO         SUNNY     37  28  69 W12       29.90S WCI  29
SHAWANO        SUNNY     43  29  56 W10       29.91S
OCONTO         SUNNY     41  29  62 NW8       29.89S
STURGEON BAY   SUNNY     39  28  65 W14       29.91S WCI  31
GREEN BAY      SUNNY     42  29  59 W13       29.92R
MANITOWOC      SUNNY     42  30  62 W15G22    29.93R
APPLETON       SUNNY     39  28  65 W14       29.94R WCI  31
CLINTONVILLE   SUNNY     41  28  60 NW12G18   29.92R
OSHKOSH        SUNNY     42  28  57 W10       29.95R
$$

WIZ032>034-041-042-053>061-301500-
SOUTHWEST WISCONSIN

CITY           SKY/WX    TMP DP  RH WIND       PRES   REMARKS
LA CROSSE      MOSUNNY   46  29  51 SW5       30.00F
SPARTA         PTSUNNY   42  28  57 SW7       30.01R
VIROQUA        MOSUNNY   40  31  70 SW8       30.00S WCI  34
BOSCOBEL       MOSUNNY   40  31  70 SW6       30.04F
PRAIRIE DU CHI CLOUDY    37  30  75 CALM      30.05S
PLATTEVILLE    MOSUNNY   39  33  80 S5        30.04F
$$

WIZ056-057-062-063-064-067-068-301500-
SOUTH CENTRAL WISCONSIN

CITY           SKY/WX    TMP DP  RH WIND       PRES   REMARKS
REEDSBURG      PTSUNNY   42  32  66 SW5       29.99F
BARABOO/DELLS  MOSUNNY   44  27  51 W9        29.99S
LONE ROCK      PTSUNNY   39  29  67 NW3       30.03F
MINERAL POINT  MOSUNNY   41  30  65 W7        30.03F
MADISON        PTSUNNY   42  29  59 VRB6      30.01S
MIDDLETON      MOSUNNY   44  29  55 W8        30.02S
WATERTOWN      PTSUNNY   41  31  67 W8        30.00S
MONROE         PTSUNNY   41  32  70 W13       30.04S
JANESVILLE     MOSUNNY   41  30  65 W8        30.05R
$$

WIZ051-052-058>065-066-070>072-301500-
SOUTHEAST WISCONSIN

CITY           SKY/WX    TMP DP  RH WIND       PRES   REMARKS
MILWAUKEE      MOSUNNY   44  28  53 W8        30.00R
WAUKESHA       MOSUNNY   39  27  60 W14G21    30.00R WCI  31
MILWAUKEE/TIMM SUNNY     41  28  60 W12G17    30.00R
RACINE         SUNNY     43  29  57 W10       30.02R
BURLINGTON     MOSUNNY   39  31  72 W9        30.02R WCI  33
KENOSHA        SUNNY     43  32  65 W12       30.01R
FOND DU LAC    SUNNY     43  28  55 W12       29.97R
SHEBOYGAN      SUNNY     43  29  57 W16       29.94R
WEST BEND      SUNNY     43  27  52 W12G26    29.97S
JUNEAU         SUNNY     39  31  74 SW12      30.00S WCI  31
$$

LSZ147-162-301500-
LAKE SUPERIOR

STATION/POSITION TIME  TEMP    WIND        PRES    WAVE
                       AIR SEA DIR/SP/G            HT/PER
                 (UTC) (F)     (DEG/KT/KT) (MB)    (FT/S)
DEVILS ISLAND    1400   35     230/ 13/ 14 1013.7R
PORT WING        1300   37     220/  5/  8 1013.5
SAXON HARBOR     1300   36     190/  6/  8 1013.2
$$

LMZ867-665-643>646-301500-
LAKE MICHIGAN

STATION/POSITION TIME  TEMP    WIND        PRES    WAVE
                       AIR SEA DIR/SP/G            HT/PER
                 (UTC) (F)     (DEG/KT/KT) (MB)    (FT/S)
NORTHPORT PIER   1400   35     340/ 10/ 21 1011.5R
SISTER BAY       1302   39     300/ 15/ 17   N/A
KEWAUNEE LAKESHO 1300   40     290/ 11/ 16 1011.2R
SHEBOYGAN LAKESH 1400   43     280/ 18/ 23 1014.6R
PORT WASHINGTON  1300   40     270/  6/ 11 1014.9R
MILWAUKEE LAKESH 1400   44     270/ 10/ 18   N/A
KENOSHA   LAKESH 1400   44     260/ 11/ 16 1016.6R
$$

TC  - TEMPERATURE IN CELSIUS
VSB - VISIBILITY IN STATUTE MILES
WCI - WIND CHILL INDEX
HX  - HEAT INDEX



USA.gov is the U.S. government's official web portal to all federal, state and local government web resources and services.